Location: Krakow
(50.0830°N, 19.9170°E)
Time: 18:51:00
(UTC+01:00)

Vanguard 1 Rocket - Pass Details

Date: 23 December 2025
Orbit: 651 x 4216 km, 34.3° (Epoch: 19 January)

Event Time Altitude Azimuth Distance (km) Brightness Sun altitude
Exits shadow 06:19:02 - 240° (WSW) 3,180 9.8 -11.7°
Reaches altitude 10° 06:23:14 10° 204° (SSW) 2,064 9.2 -11.1°
Maximum altitude 06:24:35 11° 186° (S) 1,965 9.4 -10.9°
Drops below altitude 10° 06:25:56 10° 168° (SSE) 2,049 9.7 -10.7°
Sets 06:30:05 0° 132° (SE) 3,128 11.8 -10.1°
